Regional Weather Roundup
Issued by NWS

Home | Current Version | Previous Version | Text Only | Print | Product List | Glossary On
Versions: 1 2 3 4 5 6 7 8 9 10 11 12 13 14 15 16 17 18 19 20 21 22 23 24 25 26 27 28
000
ASUS45 KCYS 301610
RWRWY

WYOMING REGIONAL WEATHER ROUNDUP
NATIONAL WEATHER SERVICE CHEYENNE WY
1000 AM MDT THU OCT 30 2014

NOTE:  "FAIR" INDICATES FEW OR NO CLOUDS BELOW 12,000 FEET
WITH NO SIGNIFICANT WEATHER AND/OR OBSTRUCTIONS TO VISIBILITY.

WYZ001-301700-
YELLOWSTONE NATIONAL PARK

CITY           SKY/WX    TMP DP  RH WIND       PRES   REMARKS
LK YELLOWSTONE   N/A     34  31  88 CALM      30.40
W YELLOWSTONE  NOT AVBL

$$
WYZ002>013-054>058-071-098>099-301700-
NORTHERN WYOMING

CITY           SKY/WX    TMP DP  RH WIND       PRES   REMARKS
JACKSON        SUNNY     34  30  86 CALM      30.39S
CODY           CLOUDY    45  30  57 CALM      30.33
GREYBULL       PTSUNNY   39  23  52 CALM      30.34S
WORLAND        MOSUNNY   40  23  50 W3        30.33S
SHERIDAN       SUNNY     49  29  46 S5        30.33S
BUFFALO        SUNNY     49  25  39 CALM      30.35S
GILLETTE       SUNNY     48  30  49 W9        30.34R
HULETT         FAIR      45  32  61 SW7       30.34
NEWCASTLE      FAIR      48  32  53 N12G17    30.33

$$
WYZ014>020-022>026-101>103-301700-
CENTRAL WYOMING

CITY           SKY/WX    TMP DP  RH WIND       PRES   REMARKS
BIG PINEY      MOSUNNY   32  23  69 SW3       30.41S
PINEDALE       MOSUNNY   32  28  86 CALM      30.42S
DUBOIS         FAIR      37  27  65 W14       30.35R HAZE    WCI  29
LANDER         PTSUNNY   40  24  53 CALM      30.34R
RIVERTON       PTSUNNY   40  26  57 VRB3      30.35R
CASPER         SUNNY     40  22  48 CALM      30.36S
DOUGLAS        SUNNY     43  24  47 NW5       30.38R

$$
WYZ021-027>030-104>119-301700-
SOUTHERN WYOMING

CITY           SKY/WX    TMP DP  RH WIND       PRES   REMARKS
EVANSTON       MOSUNNY   47  25  42 S6        30.38S
KEMMERER       MOSUNNY   41  30  65 CALM      30.40S
FORT BRIDGER   FAIR      45  29  52 E5        30.42S
ROCK SPRINGS   MOSUNNY   42  28  57 CALM      30.40R
DIXON          FAIR      45  29  55 SE5       30.44S
RAWLINS        MOSUNNY   41  27  57 SE5       30.41R
SARATOGA       FAIR      43  30  61 SE5       30.41F
LARAMIE        SUNNY     42  25  50 CALM      30.40R
CHEYENNE       SUNNY     47  27  45 W6        30.38S
TORRINGTON     SUNNY     47  28  47 W9        30.34S
PINE BLUFFS    FAIR      46  30  53 CALM      30.37S

$$



USA.gov is the U.S. government's official web portal to all federal, state and local government web resources and services.